Tracking 19854 objects as of 22-Sep-2019
HD Live streaming from Space Station
objects crossing your sky now

BUCCANEER RMM

Track BUCCANEER RMM now!
10-day predictions


NORAD ID: 43014
Int'l Code: 2017-073B
Perigee: 465.4 km
Apogee: 817.1 km
Inclination: 97.7 °
Period: 97.4 minutes
Semi major axis: 7012 km
RCS: Unknown
Launch date: November 18, 2017
Source: United States (US)
Launch site: AIR FORCE WESTERN TEST RANGE (AFWTR)
aabbcc
Your satellite tracking list
Your tracking list is empty




NASA's NSSDC Master Catalog

Two Line Element Set (TLE):
1 43014U 17073B   19265.50873864  .00000597  00000-0  53926-4 0  9994
2 43014  97.7151 182.1736 0250723 207.7639 151.0003 14.78483925 99396
Source of the keplerian elements: AFSPC